| time (UTC) | temp F | wind direction | speed MPH | gust MPH | rain 1hr in | rain 24hr in | rain mn in | humidity % | barometer mb |
| 20260502205932 | 58 | 255 | 4.0 | 11.0 | 0.00 | 0.00 | 0.00 | 71 | 1018.4 |
| 20260502205725 | 58 | 259 | 4.0 | 11.0 | 0.00 | 0.00 | 0.00 | 71 | 1018.4 |
| 20260502205517 | 58 | 219 | 4.0 | 11.0 | 0.00 | 0.00 | 0.00 | 71 | 1018.4 |
| 20260502205315 | 58 | 239 | 4.0 | 11.0 | 0.00 | 0.00 | 0.00 | 71 | 1018.4 |
| 20260502204757 | 59 | 244 | 4.0 | 11.0 | 0.00 | 0.00 | 0.00 | 70 | 1018.3 |
| 20260502204548 | 59 | 250 | 4.0 | 11.0 | 0.00 | 0.00 | 0.00 | 70 | 1018.3 |
| 20260502204342 | 59 | 217 | 4.0 | 11.0 | 0.00 | 0.00 | 0.00 | 70 | 1018.4 |
| 20260502203813 | 59 | 233 | 3.0 | 9.0 | 0.00 | 0.00 | 0.00 | 70 | 1018.4 |
| 20260502203610 | 59 | 226 | 3.0 | 9.0 | 0.00 | 0.00 | 0.00 | 70 | 1018.5 |
| 20260502203410 | 59 | 225 | 3.0 | 9.0 | 0.00 | 0.00 | 0.00 | 71 | 1018.5 |
| 20260502203208 | 59 | 234 | 3.0 | 9.0 | 0.00 | 0.00 | 0.00 | 71 | 1018.5 |
| 20260502203005 | 59 | 251 | 3.0 | 9.0 | 0.00 | 0.00 | 0.00 | 70 | 1018.6 |
| 20260502202800 | 59 | 273 | 3.0 | 10.0 | 0.00 | 0.00 | 0.00 | 70 | 1018.6 |
| 20260502202600 | 59 | 245 | 3.0 | 10.0 | 0.00 | 0.00 | 0.00 | 70 | 1018.6 |
| 20260502202355 | 59 | 221 | 3.0 | 10.0 | 0.00 | 0.00 | 0.00 | 70 | 1018.6 |
| 20260502202152 | 59 | 236 | 4.0 | 10.0 | 0.00 | 0.00 | 0.00 | 70 | 1018.7 |
| 20260502201632 | 59 | 231 | 5.0 | 10.0 | 0.00 | 0.00 | 0.00 | 69 | 1018.6 |
| 20260502201428 | 59 | 254 | 5.0 | 10.0 | 0.00 | 0.00 | 0.00 | 68 | 1018.6 |
| 20260502201226 | 59 | 243 | 5.0 | 10.0 | 0.00 | 0.00 | 0.00 | 68 | 1018.6 |
| 20260502201022 | 59 | 228 | 4.0 | 10.0 | 0.00 | 0.00 | 0.00 | 68 | 1018.5 |
| 20260502200814 | 59 | 231 | 4.0 | 10.0 | 0.00 | 0.00 | 0.00 | 68 | 1018.5 |
| 20260502200241 | 59 | 250 | 4.0 | 10.0 | 0.00 | 0.00 | 0.00 | 67 | 1018.5 |
| 20260502200040 | 59 | 205 | 4.0 | 10.0 | 0.00 | 0.00 | 0.00 | 68 | 1018.4 |
| 20260502195834 | 59 | 232 | 3.0 | 10.0 | 0.00 | 0.00 | 0.00 | 67 | 1018.5 |
| 20260502195625 | 59 | 236 | 3.0 | 10.0 | 0.00 | 0.00 | 0.00 | 67 | 1018.5 |
| 20260502195423 | 59 | 233 | 3.0 | 10.0 | 0.00 | 0.00 | 0.00 | 66 | 1018.4 |
| 20260502195223 | 59 | 229 | 3.0 | 7.0 | 0.00 | 0.00 | 0.00 | 66 | 1018.4 |
| 20260502194659 | 59 | 236 | 2.0 | 6.0 | 0.00 | 0.00 | 0.00 | 65 | 1018.4 |
| 20260502194450 | 59 | 228 | 2.0 | 6.0 | 0.00 | 0.00 | 0.00 | 65 | 1018.5 |
| 20260502194250 | 59 | 218 | 1.0 | 6.0 | 0.00 | 0.00 | 0.00 | 64 | 1018.3 |
| 20260502194045 | 59 | 207 | 1.0 | 5.0 | 0.00 | 0.00 | 0.00 | 64 | 1018.4 |
| 20260502193841 | 59 | 256 | 1.0 | 5.0 | 0.00 | 0.00 | 0.00 | 64 | 1018.4 |
| 20260502193642 | 59 | 214 | 1.0 | 5.0 | 0.00 | 0.00 | 0.00 | 64 | 1018.3 |
| 20260502193123 | 60 | 235 | 1.0 | 5.0 | 0.00 | 0.00 | 0.00 | 63 | 1018.3 |
| 20260502192914 | 60 | 222 | 1.0 | 5.0 | 0.00 | 0.00 | 0.00 | 63 | 1018.3 |
| 20260502192712 | 60 | 206 | 1.0 | 7.0 | 0.00 | 0.00 | 0.00 | 62 | 1018.3 |
| 20260502192505 | 60 | 232 | 1.0 | 7.0 | 0.00 | 0.00 | 0.00 | 62 | 1018.2 |
| 20260502192254 | 60 | 215 | 1.0 | 7.0 | 0.00 | 0.00 | 0.00 | 62 | 1018.3 |
| 20260502192050 | 60 | 229 | 1.0 | 7.0 | 0.00 | 0.00 | 0.00 | 62 | 1018.2 |
| 20260502191851 | 60 | 218 | 1.0 | 7.0 | 0.00 | 0.00 | 0.00 | 62 | 1018.2 |
| 20260502191643 | 60 | 237 | 1.0 | 7.0 | 0.00 | 0.00 | 0.00 | 61 | 1018.2 |
| 20260502191443 | 60 | 226 | 1.0 | 7.0 | 0.00 | 0.00 | 0.00 | 61 | 1018.1 |
| 20260502191234 | 60 | 222 | 1.0 | 7.0 | 0.00 | 0.00 | 0.00 | 61 | 1018.1 |
| 20260502191035 | 60 | 213 | 1.0 | 7.0 | 0.00 | 0.00 | 0.00 | 60 | 1018.1 |
| 20260502190827 | 60 | 225 | 1.0 | 7.0 | 0.00 | 0.00 | 0.00 | 60 | 1018.1 |
| 20260502190621 | 60 | 220 | 0.0 | 3.0 | 0.00 | 0.00 | 0.00 | 60 | 1018.2 |
| 20260502190051 | 61 | 236 | 0.0 | 2.0 | 0.00 | 0.00 | 0.00 | 60 | 1018.2 |
| 20260502185849 | 61 | 215 | 0.0 | 2.0 | 0.00 | 0.00 | 0.00 | 60 | 1018.1 |
| 20260502185331 | 61 | 213 | 0.0 | 7.0 | 0.00 | 0.00 | 0.00 | 60 | 1018.1 |
| 20260502185132 | 61 | 215 | 0.0 | 7.0 | 0.00 | 0.00 | 0.00 | 60 | 1018.0 |
| 20260502184927 | 60 | 231 | 0.0 | 5.0 | 0.00 | 0.00 | 0.00 | 60 | 1018.0 |
| 20260502184723 | 60 | 218 | 0.0 | 5.0 | 0.00 | 0.00 | 0.00 | 60 | 1018.1 |
| 20260502183844 | 61 | 223 | 1.0 | 7.0 | 0.00 | 0.00 | 0.00 | 60 | 1018.1 |
| 20260502183637 | 61 | 241 | 1.0 | 7.0 | 0.00 | 0.00 | 0.00 | 59 | 1018.0 |
| 20260502183430 | 61 | 244 | 2.0 | 7.0 | 0.00 | 0.00 | 0.00 | 59 | 1018.1 |
| 20260502183228 | 61 | 256 | 2.0 | 7.0 | 0.00 | 0.00 | 0.00 | 59 | 1018.1 |
| 20260502182703 | 61 | 240 | 2.0 | 7.0 | 0.00 | 0.00 | 0.00 | 59 | 1018.1 |
| 20260502182146 | 61 | 237 | 2.0 | 5.0 | 0.00 | 0.00 | 0.00 | 57 | 1017.9 |
| 20260502181943 | 62 | 229 | 2.0 | 5.0 | 0.00 | 0.00 | 0.00 | 58 | 1017.9 |
| 20260502181734 | 62 | 213 | 2.0 | 5.0 | 0.00 | 0.00 | 0.00 | 57 | 1018.0 |
| 20260502181531 | 62 | 251 | 2.0 | 6.0 | 0.00 | 0.00 | 0.00 | 57 | 1018.0 |
| 20260502181325 | 62 | 210 | 2.0 | 6.0 | 0.00 | 0.00 | 0.00 | 57 | 1018.0 |
| 20260502181120 | 62 | 248 | 2.0 | 6.0 | 0.00 | 0.00 | 0.00 | 57 | 1018.1 |
| 20260502180913 | 62 | 221 | 2.0 | 6.0 | 0.00 | 0.00 | 0.00 | 57 | 1018.0 |
| 20260502180708 | 62 | 245 | 2.0 | 6.0 | 0.00 | 0.00 | 0.00 | 57 | 1018.0 |
| 20260502180504 | 62 | 238 | 2.0 | 7.0 | 0.00 | 0.00 | 0.00 | 57 | 1018.0 |
| 20260502180258 | 62 | 225 | 3.0 | 7.0 | 0.00 | 0.00 | 0.00 | 57 | 1017.9 |
| 20260502170235 | 66 | 203 | 3.0 | 7.0 | 0.00 | 0.00 | 0.00 | 52 | 1018.3 |
| 20260502163923 | 66 | 225 | 3.0 | 9.0 | 0.00 | 0.00 | 0.00 | 51 | 1018.5 |
| 20260502163716 | 66 | 234 | 3.0 | 9.0 | 0.00 | 0.00 | 0.00 | 50 | 1018.5 |
| 20260502163513 | 66 | 231 | 4.0 | 9.0 | 0.00 | 0.00 | 0.00 | 48 | 1018.5 |
| 20260502163312 | 66 | 233 | 4.0 | 9.0 | 0.00 | 0.00 | 0.00 | 49 | 1018.5 |
| 20260502163105 | 66 | 223 | 4.0 | 9.0 | 0.00 | 0.00 | 0.00 | 46 | 1018.6 |
| 20260502162902 | 67 | 240 | 4.0 | 9.0 | 0.00 | 0.00 | 0.00 | 51 | 1018.6 |
| 20260502162658 | 67 | 231 | 4.0 | 9.0 | 0.00 | 0.00 | 0.00 | 48 | 1018.6 |
| 20260502162452 | 67 | 237 | 3.0 | 9.0 | 0.00 | 0.00 | 0.00 | 48 | 1018.6 |
| 20260502162247 | 67 | 233 | 4.0 | 9.0 | 0.00 | 0.00 | 0.00 | 53 | 1018.6 |
| 20260502162043 | 67 | 211 | 4.0 | 9.0 | 0.00 | 0.00 | 0.00 | 51 | 1018.6 |
| 20260502161837 | 67 | 253 | 4.0 | 9.0 | 0.00 | 0.00 | 0.00 | 55 | 1018.7 |
| 20260502161315 | 67 | 250 | 5.0 | 9.0 | 0.00 | 0.00 | 0.00 | 56 | 1018.7 |
| 20260502161104 | 67 | 219 | 4.0 | 9.0 | 0.00 | 0.00 | 0.00 | 58 | 1018.8 |
| 20260502160900 | 67 | 219 | 4.0 | 9.0 | 0.00 | 0.00 | 0.00 | 58 | 1018.8 |
| 20260502160658 | 67 | 222 | 4.0 | 9.0 | 0.00 | 0.00 | 0.00 | 58 | 1018.8 |
| 20260502160457 | 67 | 266 | 4.0 | 9.0 | 0.00 | 0.00 | 0.00 | 57 | 1018.8 |
| 20260502152032 | 68 | 238 | 2.0 | 7.0 | 0.00 | 0.00 | 0.00 | 62 | 1018.9 |
| 20260502151828 | 68 | 258 | 1.0 | 7.0 | 0.00 | 0.00 | 0.00 | 59 | 1019.0 |
| 20260502151622 | 68 | 226 | 1.0 | 7.0 | 0.00 | 0.00 | 0.00 | 61 | 1019.0 |
| 20260502151413 | 69 | 234 | 1.0 | 9.0 | 0.00 | 0.00 | 0.00 | 60 | 1019.0 |
| 20260502151209 | 69 | 241 | 0.0 | 9.0 | 0.00 | 0.00 | 0.00 | 60 | 1019.0 |
| 20260502150637 | 68 | 303 | 1.0 | 9.0 | 0.00 | 0.00 | 0.00 | 56 | 1019.0 |
| 20260502150106 | 68 | 268 | 3.0 | 9.0 | 0.00 | 0.00 | 0.00 | 58 | 1019.0 |
| 20260502140117 | 67 | 313 | 2.0 | 6.0 | 0.00 | 0.00 | 0.00 | 65 | 1019.9 |
| 20260502130734 | 67 | 311 | 1.0 | 6.0 | 0.00 | 0.00 | 0.00 | 66 | 1020.3 |
| 20260502130524 | 67 | 329 | 0.0 | 5.0 | 0.00 | 0.00 | 0.00 | 66 | 1020.4 |
| 20260502130316 | 67 | 305 | 0.0 | 5.0 | 0.00 | 0.00 | 0.00 | 66 | 1020.3 |
| 20260502130115 | 67 | 283 | 0.0 | 5.0 | 0.00 | 0.00 | 0.00 | 65 | 1020.4 |
| 20260502123756 | 67 | 226 | 1.0 | 6.0 | 0.00 | 0.00 | 0.00 | 65 | 1020.5 |
| 20260502123549 | 67 | 255 | 1.0 | 6.0 | 0.00 | 0.00 | 0.00 | 65 | 1020.6 |
| 20260502123339 | 67 | 302 | 1.0 | 6.0 | 0.00 | 0.00 | 0.00 | 65 | 1020.6 |
| 20260502123140 | 67 | 242 | 1.0 | 6.0 | 0.00 | 0.00 | 0.00 | 65 | 1020.6 |
| 20260502122935 | 68 | 298 | 0.0 | 6.0 | 0.00 | 0.00 | 0.00 | 65 | 1020.7 |
| 20260502122726 | 68 | 274 | 0.0 | 5.0 | 0.00 | 0.00 | 0.00 | 64 | 1020.6 |
| 20260502122527 | 68 | 42 | 0.0 | 4.0 | 0.00 | 0.00 | 0.00 | 63 | 1020.6 |
| 20260502122326 | 69 | 287 | 0.0 | 4.0 | 0.00 | 0.00 | 0.00 | 65 | 1020.8 |
| 20260502122121 | 68 | 148 | 0.0 | 4.0 | 0.00 | 0.00 | 0.00 | 66 | 1020.7 |
| 20260502121920 | 68 | 208 | 0.0 | 4.0 | 0.00 | 0.00 | 0.00 | 66 | 1020.8 |
| 20260502121718 | 68 | 269 | 1.0 | 4.0 | 0.00 | 0.00 | 0.00 | 64 | 1020.8 |
| 20260502121513 | 68 | 236 | 1.0 | 6.0 | 0.00 | 0.00 | 0.00 | 64 | 1020.9 |
| 20260502121309 | 68 | 68 | 1.0 | 6.0 | 0.00 | 0.00 | 0.00 | 66 | 1020.9 |
| 20260502121101 | 68 | 228 | 1.0 | 6.0 | 0.00 | 0.00 | 0.00 | 66 | 1020.9 |
| 20260502120852 | 67 | 226 | 1.0 | 6.0 | 0.00 | 0.00 | 0.00 | 65 | 1020.8 |
| 20260502120328 | 67 | 264 | 1.0 | 6.0 | 0.00 | 0.00 | 0.00 | 64 | 1021.0 |
| 20260502120119 | 68 | 306 | 1.0 | 6.0 | 0.00 | 0.00 | 0.00 | 65 | 1021.0 |
| 20260502115556 | 68 | 284 | 0.0 | 5.0 | 0.00 | 0.00 | 0.00 | 63 | 1021.0 |
| 20260502115356 | 68 | 292 | 0.0 | 0.0 | 0.00 | 0.00 | 0.00 | 63 | 1021.0 |
| 20260502115150 | 68 | 292 | 1.0 | 4.0 | 0.00 | 0.00 | 0.00 | 62 | 1021.1 |
| 20260502114945 | 68 | 295 | 1.0 | 4.0 | 0.00 | 0.00 | 0.00 | 64 | 1021.2 |
| 20260502114424 | 68 | 283 | 0.0 | 5.0 | 0.00 | 0.00 | 0.00 | 62 | 1021.1 |
| 20260502114218 | 69 | 252 | 0.0 | 5.0 | 0.00 | 0.00 | 0.00 | 65 | 1021.0 |
| 20260502114015 | 68 | 268 | 0.0 | 5.0 | 0.00 | 0.00 | 0.00 | 65 | 1021.2 |
| 20260502113808 | 68 | 37 | 0.0 | 5.0 | 0.00 | 0.00 | 0.00 | 66 | 1021.2 |
| 20260502113607 | 68 | 79 | 1.0 | 5.0 | 0.00 | 0.00 | 0.00 | 66 | 1021.2 |
| 20260502113037 | 68 | 240 | 1.0 | 5.0 | 0.00 | 0.00 | 0.00 | 65 | 1021.2 |
| 20260502112838 | 68 | 249 | 1.0 | 5.0 | 0.00 | 0.00 | 0.00 | 66 | 1021.2 |
| 20260502112636 | 67 | 51 | 1.0 | 5.0 | 0.00 | 0.00 | 0.00 | 64 | 1021.3 |
| 20260502112431 | 67 | 313 | 0.0 | 3.0 | 0.00 | 0.00 | 0.00 | 66 | 1021.3 |
| 20260502112224 | 67 | 232 | 0.0 | 3.0 | 0.00 | 0.00 | 0.00 | 66 | 1021.4 |
| 20260502112017 | 67 | 285 | 1.0 | 3.0 | 0.00 | 0.00 | 0.00 | 64 | 1021.3 |
| 20260502111815 | 67 | 281 | 1.0 | 5.0 | 0.00 | 0.00 | 0.00 | 65 | 1021.5 |
| 20260502111611 | 67 | 280 | 1.0 | 5.0 | 0.00 | 0.00 | 0.00 | 64 | 1021.5 |
| 20260502111400 | 67 | 217 | 1.0 | 5.0 | 0.00 | 0.00 | 0.00 | 65 | 1021.6 |
| 20260502111155 | 67 | 237 | 1.0 | 5.0 | 0.00 | 0.00 | 0.00 | 65 | 1021.5 |
| 20260502110953 | 67 | 270 | 1.0 | 5.0 | 0.00 | 0.00 | 0.00 | 66 | 1021.5 |
| 20260502110743 | 67 | 256 | 1.0 | 5.0 | 0.00 | 0.00 | 0.00 | 68 | 1021.5 |
| 20260502110535 | 67 | 84 | 0.0 | 5.0 | 0.00 | 0.00 | 0.00 | 66 | 1021.5 |
| 20260502110331 | 67 | 169 | 0.0 | 5.0 | 0.00 | 0.00 | 0.00 | 67 | 1021.6 |
| 20260502110122 | 67 | 240 | 0.0 | 5.0 | 0.00 | 0.00 | 0.00 | 65 | 1021.6 |
| 20260502105922 | 67 | 283 | 0.0 | 4.0 | 0.00 | 0.00 | 0.00 | 66 | 1021.7 |
| 20260502105717 | 66 | 277 | 1.0 | 4.0 | 0.00 | 0.00 | 0.00 | 65 | 1021.6 |
| 20260502105516 | 66 | 276 | 1.0 | 4.0 | 0.00 | 0.00 | 0.00 | 66 | 1021.6 |
| 20260502104943 | 66 | 58 | 1.0 | 4.0 | 0.00 | 0.00 | 0.00 | 66 | 1021.7 |
| 20260502104742 | 66 | 259 | 1.0 | 4.0 | 0.00 | 0.00 | 0.00 | 66 | 1021.6 |
| 20260502104541 | 66 | 284 | 0.0 | 4.0 | 0.00 | 0.00 | 0.00 | 67 | 1021.7 |
| 20260502104019 | 66 | 297 | 0.0 | 4.0 | 0.00 | 0.00 | 0.00 | 66 | 1021.7 |
| 20260502103819 | 66 | 295 | 0.0 | 3.0 | 0.00 | 0.00 | 0.00 | 67 | 1021.8 |
| 20260502103611 | 66 | 222 | 0.0 | 3.0 | 0.00 | 0.00 | 0.00 | 66 | 1021.7 |
| 20260502103405 | 66 | 319 | 1.0 | 6.0 | 0.00 | 0.00 | 0.00 | 68 | 1021.7 |
| 20260502103155 | 66 | 251 | 0.0 | 6.0 | 0.00 | 0.00 | 0.00 | 67 | 1021.7 |
| 20260502102953 | 65 | 213 | 0.0 | 6.0 | 0.00 | 0.00 | 0.00 | 67 | 1021.8 |
| 20260502102755 | 65 | 216 | 1.0 | 6.0 | 0.00 | 0.00 | 0.00 | 71 | 1021.8 |
| 20260502102233 | 65 | 278 | 1.0 | 6.0 | 0.00 | 0.00 | 0.00 | 68 | 1021.8 |
| 20260502102025 | 65 | 297 | 1.0 | 6.0 | 0.00 | 0.00 | 0.00 | 67 | 1021.9 |
| 20260502101409 | 65 | 278 | 1.0 | 3.0 | 0.00 | 0.00 | 0.00 | 68 | 1022.0 |
| 20260502101207 | 65 | 302 | 1.0 | 4.0 | 0.00 | 0.00 | 0.00 | 68 | 1021.9 |
| 20260502101004 | 65 | 282 | 0.0 | 4.0 | 0.00 | 0.00 | 0.00 | 69 | 1021.9 |
| 20260502100804 | 64 | 269 | 0.0 | 4.0 | 0.00 | 0.00 | 0.00 | 69 | 1022.0 |
| 20260502100556 | 64 | 269 | 1.0 | 4.0 | 0.00 | 0.00 | 0.00 | 68 | 1022.0 |
| 20260502100352 | 64 | 314 | 1.0 | 6.0 | 0.00 | 0.00 | 0.00 | 66 | 1022.1 |
| 20260502100147 | 64 | 281 | 1.0 | 6.0 | 0.00 | 0.00 | 0.00 | 67 | 1022.1 |
| 20260502091407 | 63 | 272 | 1.0 | 4.0 | 0.00 | 0.00 | 0.00 | 68 | 1022.5 |
| 20260502091201 | 63 | 309 | 1.0 | 4.0 | 0.00 | 0.00 | 0.00 | 66 | 1022.5 |
| 20260502090957 | 63 | 281 | 0.0 | 3.0 | 0.00 | 0.00 | 0.00 | 68 | 1022.5 |
| 20260502090754 | 63 | 305 | 0.0 | 3.0 | 0.00 | 0.00 | 0.00 | 67 | 1022.5 |
| 20260502090553 | 63 | 288 | 0.0 | 3.0 | 0.00 | 0.00 | 0.00 | 66 | 1022.6 |
| 20260502090351 | 64 | 238 | 0.0 | 3.0 | 0.00 | 0.00 | 0.00 | 68 | 1022.6 |
| 20260502090150 | 64 | 289 | 0.0 | 3.0 | 0.00 | 0.00 | 0.00 | 67 | 1022.6 |
| 20260502071347 | 58 | 264 | 2.0 | 4.0 | 0.00 | 0.00 | 0.00 | 74 | 1023.0 |
| 20260502071146 | 58 | 221 | 2.0 | 6.0 | 0.00 | 0.00 | 0.00 | 74 | 1023.1 |
| 20260502070935 | 58 | 248 | 2.0 | 6.0 | 0.00 | 0.00 | 0.00 | 74 | 1023.0 |
| 20260502070734 | 58 | 240 | 2.0 | 6.0 | 0.00 | 0.00 | 0.00 | 75 | 1023.0 |
| 20260502070530 | 58 | 238 | 2.0 | 6.0 | 0.00 | 0.00 | 0.00 | 75 | 1023.0 |
| 20260502070330 | 57 | 219 | 2.0 | 6.0 | 0.00 | 0.00 | 0.00 | 74 | 1023.1 |
| 20260502070126 | 57 | 244 | 2.0 | 6.0 | 0.00 | 0.00 | 0.00 | 76 | 1023.1 |
| 20260502065917 | 57 | 258 | 2.0 | 6.0 | 0.00 | 0.00 | 0.00 | 75 | 1023.2 |
| 20260502065711 | 57 | 243 | 2.0 | 6.0 | 0.00 | 0.00 | 0.00 | 75 | 1023.1 |
| 20260502065501 | 57 | 235 | 2.0 | 6.0 | 0.00 | 0.00 | 0.00 | 73 | 1023.0 |
| 20260502065258 | 57 | 239 | 2.0 | 5.0 | 0.00 | 0.00 | 0.00 | 75 | 1023.0 |
| 20260502065052 | 57 | 236 | 2.0 | 5.0 | 0.00 | 0.00 | 0.00 | 75 | 1023.0 |
| 20260502064844 | 57 | 241 | 2.0 | 5.0 | 0.00 | 0.00 | 0.00 | 76 | 1023.1 |
| 20260502064314 | 57 | 238 | 1.0 | 5.0 | 0.00 | 0.00 | 0.00 | 75 | 1023.0 |
| 20260502063749 | 57 | 241 | 0.0 | 5.0 | 0.00 | 0.00 | 0.00 | 76 | 1023.0 |
| 20260502063547 | 57 | 227 | 1.0 | 5.0 | 0.00 | 0.00 | 0.00 | 76 | 1022.9 |
| 20260502063018 | 57 | 264 | 2.0 | 5.0 | 0.00 | 0.00 | 0.00 | 76 | 1023.0 |
| 20260502062813 | 56 | 236 | 2.0 | 5.0 | 0.00 | 0.00 | 0.00 | 76 | 1023.0 |
| 20260502062253 | 56 | 225 | 1.0 | 5.0 | 0.00 | 0.00 | 0.00 | 75 | 1023.1 |
| 20260502062046 | 56 | 222 | 1.0 | 5.0 | 0.00 | 0.00 | 0.00 | 75 | 1023.1 |
| 20260502061841 | 56 | 218 | 2.0 | 5.0 | 0.00 | 0.00 | 0.00 | 76 | 1023.0 |
| 20260502061640 | 56 | 232 | 1.0 | 5.0 | 0.00 | 0.00 | 0.00 | 74 | 1023.1 |
| 20260502061237 | 56 | 232 | 2.0 | 5.0 | 0.00 | 0.00 | 0.00 | 76 | 1023.0 |
| 20260502060722 | 56 | 222 | 2.0 | 7.0 | 0.00 | 0.00 | 0.00 | 77 | 1023.1 |
| 20260502060515 | 56 | 217 | 2.0 | 7.0 | 0.00 | 0.00 | 0.00 | 76 | 1023.2 |
| 20260502060310 | 56 | 240 | 1.0 | 7.0 | 0.00 | 0.00 | 0.00 | 77 | 1023.0 |
| 20260502055424 | 55 | 247 | 1.0 | 7.0 | 0.00 | 0.00 | 0.00 | 76 | 1023.1 |
| 20260502055220 | 55 | 224 | 1.0 | 7.0 | 0.00 | 0.00 | 0.00 | 76 | 1023.1 |
| 20260502055014 | 55 | 236 | 1.0 | 7.0 | 0.00 | 0.00 | 0.00 | 76 | 1023.2 |
| 20260502054805 | 55 | 189 | 1.0 | 7.0 | 0.00 | 0.00 | 0.00 | 75 | 1023.0 |
| 20260502054557 | 56 | 48 | 0.0 | 6.0 | 0.00 | 0.00 | 0.00 | 74 | 1023.0 |
| 20260502054030 | 56 | 158 | 0.0 | 4.0 | 0.00 | 0.00 | 0.00 | 75 | 1022.9 |
| 20260502053820 | 55 | 211 | 0.0 | 4.0 | 0.00 | 0.00 | 0.00 | 75 | 1023.0 |
| 20260502052944 | 55 | 203 | 0.0 | 5.0 | 0.00 | 0.00 | 0.00 | 75 | 1022.9 |
| 20260502052735 | 55 | 153 | 1.0 | 5.0 | 0.00 | 0.00 | 0.00 | 76 | 1022.8 |
| 20260502052528 | 55 | 163 | 1.0 | 5.0 | 0.00 | 0.00 | 0.00 | 76 | 1022.9 |
| 20260502052322 | 54 | 214 | 1.0 | 5.0 | 0.00 | 0.00 | 0.00 | 76 | 1022.9 |
| 20260502052122 | 54 | 217 | 1.0 | 5.0 | 0.00 | 0.00 | 0.00 | 76 | 1022.8 |
| 20260502051920 | 54 | 207 | 1.0 | 5.0 | 0.00 | 0.00 | 0.00 | 76 | 1022.9 |
| 20260502051717 | 54 | 203 | 1.0 | 5.0 | 0.00 | 0.00 | 0.00 | 76 | 1022.8 |
| 20260502051512 | 54 | 241 | 0.0 | 4.0 | 0.00 | 0.00 | 0.00 | 77 | 1022.9 |
| 20260502051310 | 54 | 208 | 0.0 | 3.0 | 0.00 | 0.00 | 0.00 | 77 | 1022.8 |
| 20260502051101 | 54 | 259 | 0.0 | 3.0 | 0.00 | 0.00 | 0.00 | 77 | 1022.9 |
| 20260502050902 | 53 | 219 | 0.0 | 2.0 | 0.00 | 0.00 | 0.00 | 77 | 1022.9 |
| 20260502050653 | 53 | 200 | 0.0 | 0.0 | 0.00 | 0.00 | 0.00 | 78 | 1022.8 |
| 20260502050453 | 53 | 200 | 0.0 | 0.0 | 0.00 | 0.00 | 0.00 | 77 | 1022.8 |
| 20260502050244 | 53 | 200 | 0.0 | 0.0 | 0.00 | 0.00 | 0.00 | 78 | 1022.8 |
| 20260502050044 | 53 | 200 | 0.0 | 2.0 | 0.00 | 0.00 | 0.00 | 78 | 1022.8 |
| 20260502045844 | 53 | 219 | 0.0 | 0.0 | 0.00 | 0.00 | 0.00 | 78 | 1022.8 |
| 20260502045641 | 53 | 219 | 0.0 | 1.0 | 0.00 | 0.00 | 0.00 | 78 | 1022.8 |
| 20260502045437 | 53 | 221 | 0.0 | 1.0 | 0.00 | 0.00 | 0.00 | 78 | 1022.8 |
| 20260502045227 | 53 | 221 | 0.0 | 1.0 | 0.00 | 0.00 | 0.00 | 79 | 1022.8 |
| 20260502045028 | 53 | 233 | 0.0 | 0.0 | 0.00 | 0.00 | 0.00 | 79 | 1022.8 |
| 20260502044825 | 53 | 233 | 1.0 | 4.0 | 0.00 | 0.00 | 0.00 | 78 | 1022.8 |
| 20260502044624 | 54 | 238 | 0.0 | 4.0 | 0.00 | 0.00 | 0.00 | 78 | 1022.8 |
| 20260502044418 | 54 | 226 | 0.0 | 4.0 | 0.00 | 0.00 | 0.00 | 76 | 1022.8 |
| 20260502044214 | 54 | 215 | 0.0 | 4.0 | 0.00 | 0.00 | 0.00 | 76 | 1022.8 |
| 20260502043652 | 54 | 257 | 0.0 | 4.0 | 0.00 | 0.00 | 0.00 | 76 | 1022.8 |
| 20260502043444 | 54 | 236 | 0.0 | 4.0 | 0.00 | 0.00 | 0.00 | 76 | 1022.8 |
| 20260502043234 | 54 | 242 | 0.0 | 4.0 | 0.00 | 0.00 | 0.00 | 76 | 1022.8 |
| 20260502042712 | 54 | 155 | 0.0 | 5.0 | 0.00 | 0.00 | 0.00 | 77 | 1022.8 |
| 20260502042512 | 54 | 236 | 0.0 | 5.0 | 0.00 | 0.00 | 0.00 | 77 | 1022.7 |
| 20260502042306 | 54 | 199 | 0.0 | 5.0 | 0.00 | 0.00 | 0.00 | 77 | 1022.8 |
| 20260502042053 | 54 | 236 | 0.0 | 5.0 | 0.00 | 0.00 | 0.00 | 77 | 1022.8 |
| 20260502041847 | 54 | 224 | 1.0 | 5.0 | 0.00 | 0.00 | 0.00 | 77 | 1022.6 |
| 20260502041322 | 54 | 228 | 0.0 | 5.0 | 0.00 | 0.00 | 0.00 | 77 | 1022.7 |
| 20260502041120 | 54 | 238 | 1.0 | 5.0 | 0.00 | 0.00 | 0.00 | 77 | 1022.8 |
| 20260502040916 | 54 | 193 | 0.0 | 5.0 | 0.00 | 0.00 | 0.00 | 77 | 1022.8 |
| 20260502040352 | 54 | 210 | 0.0 | 3.0 | 0.00 | 0.00 | 0.00 | 78 | 1022.7 |
| 20260502040142 | 54 | 219 | 0.0 | 2.0 | 0.00 | 0.00 | 0.00 | 78 | 1022.8 |
| 20260502035610 | 54 | 105 | 0.0 | 2.0 | 0.00 | 0.00 | 0.00 | 79 | 1022.7 |
| 20260502035408 | 54 | 210 | 0.0 | 2.0 | 0.00 | 0.00 | 0.00 | 79 | 1022.7 |
| 20260502035204 | 54 | 204 | 0.0 | 0.0 | 0.00 | 0.00 | 0.00 | 79 | 1022.7 |
| 20260502034956 | 54 | 101 | 0.0 | 2.0 | 0.00 | 0.00 | 0.00 | 79 | 1022.7 |
| 20260502034749 | 54 | 231 | 0.0 | 3.0 | 0.00 | 0.00 | 0.00 | 79 | 1022.8 |
| 20260502034542 | 54 | 233 | 0.0 | 3.0 | 0.00 | 0.00 | 0.00 | 79 | 1022.8 |
| 20260502034336 | 54 | 198 | 0.0 | 3.0 | 0.00 | 0.00 | 0.00 | 79 | 1022.8 |
| 20260502034136 | 54 | 233 | 0.0 | 3.0 | 0.00 | 0.00 | 0.00 | 79 | 1022.7 |
| 20260502033936 | 54 | 224 | 0.0 | 3.0 | 0.00 | 0.00 | 0.00 | 79 | 1022.7 |
| 20260502033734 | 54 | 187 | 0.0 | 3.0 | 0.00 | 0.00 | 0.00 | 79 | 1022.8 |
| 20260502033524 | 54 | 211 | 0.0 | 3.0 | 0.00 | 0.00 | 0.00 | 80 | 1022.8 |
| 20260502033325 | 54 | 88 | 0.0 | 3.0 | 0.00 | 0.00 | 0.00 | 80 | 1022.8 |
| 20260502033118 | 54 | 184 | 0.0 | 3.0 | 0.00 | 0.00 | 0.00 | 80 | 1022.9 |
| 20260502032918 | 54 | 136 | 0.0 | 2.0 | 0.00 | 0.00 | 0.00 | 80 | 1022.9 |
| 20260502032711 | 54 | 221 | 0.0 | 2.0 | 0.00 | 0.00 | 0.00 | 80 | 1022.7 |
| 20260502032509 | 54 | 240 | 0.0 | 1.0 | 0.00 | 0.00 | 0.00 | 80 | 1022.8 |
| 20260502032300 | 54 | 213 | 0.0 | 1.0 | 0.00 | 0.00 | 0.00 | 80 | 1022.8 |
| 20260502032053 | 54 | 155 | 0.0 | 0.0 | 0.00 | 0.00 | 0.00 | 80 | 1022.8 |
| 20260502031844 | 54 | 155 | 0.0 | 0.0 | 0.00 | 0.00 | 0.00 | 80 | 1022.8 |
| 20260502031645 | 54 | 191 | 0.0 | 0.0 | 0.00 | 0.00 | 0.00 | 80 | 1022.9 |
| 20260502031438 | 54 | 194 | 0.0 | 1.0 | 0.00 | 0.00 | 0.00 | 80 | 1022.8 |
| 20260502031235 | 54 | 164 | 0.0 | 1.0 | 0.00 | 0.00 | 0.00 | 80 | 1022.9 |
| 20260502031026 | 54 | 110 | 0.0 | 2.0 | 0.00 | 0.00 | 0.00 | 79 | 1023.0 |
| 20260502030504 | 54 | 209 | 0.0 | 2.0 | 0.00 | 0.00 | 0.00 | 79 | 1022.9 |
| 20260502030256 | 54 | 218 | 0.0 | 2.0 | 0.00 | 0.00 | 0.00 | 79 | 1023.0 |
| 20260502030051 | 54 | 155 | 0.0 | 2.0 | 0.00 | 0.00 | 0.00 | 79 | 1023.0 |
| 20260502025851 | 55 | 160 | 0.0 | 6.0 | 0.00 | 0.00 | 0.00 | 79 | 1023.0 |
| 20260502025652 | 55 | 217 | 0.0 | 6.0 | 0.00 | 0.00 | 0.00 | 78 | 1022.9 |
| 20260502025450 | 55 | 208 | 0.0 | 6.0 | 0.00 | 0.00 | 0.00 | 78 | 1023.0 |
| 20260502025246 | 55 | 79 | 0.0 | 6.0 | 0.00 | 0.00 | 0.00 | 78 | 1023.0 |
| 20260502025040 | 55 | 205 | 0.0 | 6.0 | 0.00 | 0.00 | 0.00 | 78 | 1022.9 |
| 20260502024835 | 55 | 137 | 0.0 | 6.0 | 0.00 | 0.00 | 0.00 | 79 | 1023.0 |
| 20260502024632 | 55 | 205 | 0.0 | 6.0 | 0.00 | 0.00 | 0.00 | 79 | 1023.0 |
| 20260502024433 | 55 | 220 | 0.0 | 6.0 | 0.00 | 0.00 | 0.00 | 79 | 1023.0 |
| 20260502024227 | 55 | 135 | 0.0 | 6.0 | 0.00 | 0.00 | 0.00 | 78 | 1023.0 |
| 20260502023702 | 55 | 198 | 0.0 | 4.0 | 0.00 | 0.00 | 0.00 | 77 | 1023.0 |
| 20260502023502 | 55 | 174 | 0.0 | 4.0 | 0.00 | 0.00 | 0.00 | 77 | 1023.0 |
| 20260502023302 | 55 | 233 | 0.0 | 4.0 | 0.00 | 0.00 | 0.00 | 77 | 1023.0 |
| 20260502023100 | 55 | 115 | 1.0 | 4.0 | 0.00 | 0.00 | 0.00 | 77 | 1023.0 |
| 20260502022852 | 55 | 236 | 1.0 | 7.0 | 0.00 | 0.00 | 0.00 | 77 | 1023.0 |
| 20260502022651 | 55 | 224 | 1.0 | 7.0 | 0.00 | 0.00 | 0.00 | 77 | 1023.0 |
| 20260502022442 | 55 | 208 | 1.0 | 7.0 | 0.00 | 0.00 | 0.00 | 77 | 1023.0 |
| 20260502022236 | 55 | 223 | 1.0 | 7.0 | 0.00 | 0.00 | 0.00 | 77 | 1023.0 |
| 20260502022030 | 55 | 226 | 1.0 | 7.0 | 0.00 | 0.00 | 0.00 | 77 | 1023.1 |
| 20260502021821 | 55 | 259 | 1.0 | 7.0 | 0.00 | 0.00 | 0.00 | 77 | 1023.0 |
| 20260502021300 | 55 | 204 | 1.0 | 7.0 | 0.00 | 0.00 | 0.00 | 77 | 1023.0 |
| 20260502021057 | 55 | 220 | 1.0 | 7.0 | 0.00 | 0.00 | 0.00 | 76 | 1023.0 |
| 20260502020848 | 55 | 250 | 1.0 | 7.0 | 0.00 | 0.00 | 0.00 | 77 | 1023.1 |
| 20260502020321 | 55 | 249 | 1.0 | 6.0 | 0.00 | 0.00 | 0.00 | 76 | 1023.2 |
| 20260502015803 | 55 | 234 | 2.0 | 6.0 | 0.00 | 0.00 | 0.00 | 77 | 1023.2 |
| 20260502015555 | 55 | 211 | 2.0 | 6.0 | 0.00 | 0.00 | 0.00 | 77 | 1023.1 |
| 20260502014341 | 55 | 210 | 1.0 | 7.0 | 0.00 | 0.00 | 0.00 | 79 | 1023.2 |
| 20260502014142 | 55 | 215 | 1.0 | 7.0 | 0.00 | 0.00 | 0.00 | 79 | 1023.2 |
| 20260502013933 | 55 | 228 | 1.0 | 7.0 | 0.00 | 0.00 | 0.00 | 78 | 1023.1 |
| 20260502013724 | 55 | 216 | 1.0 | 7.0 | 0.00 | 0.00 | 0.00 | 78 | 1023.2 |
| 20260502013522 | 55 | 229 | 1.0 | 7.0 | 0.00 | 0.00 | 0.00 | 78 | 1023.2 |
| 20260502013314 | 55 | 224 | 1.0 | 7.0 | 0.00 | 0.00 | 0.00 | 78 | 1023.2 |
| 20260502013115 | 55 | 236 | 1.0 | 7.0 | 0.00 | 0.00 | 0.00 | 78 | 1023.2 |
| 20260502012907 | 55 | 236 | 1.0 | 7.0 | 0.00 | 0.00 | 0.00 | 77 | 1023.3 |
| 20260502012705 | 55 | 231 | 1.0 | 5.0 | 0.00 | 0.00 | 0.00 | 77 | 1023.3 |
| 20260502012457 | 55 | 219 | 1.0 | 9.0 | 0.00 | 0.00 | 0.00 | 77 | 1023.3 |
| 20260502011930 | 55 | 238 | 1.0 | 9.0 | 0.00 | 0.00 | 0.00 | 77 | 1023.3 |
| 20260502011721 | 55 | 240 | 1.0 | 9.0 | 0.00 | 0.00 | 0.00 | 77 | 1023.2 |
| 20260502011516 | 55 | 270 | 2.0 | 9.0 | 0.00 | 0.00 | 0.00 | 77 | 1023.2 |
| 20260502010942 | 55 | 248 | 2.0 | 9.0 | 0.00 | 0.00 | 0.00 | 77 | 1023.3 |
| 20260502010733 | 55 | 214 | 2.0 | 9.0 | 0.00 | 0.00 | 0.00 | 77 | 1023.3 |
| 20260502010213 | 55 | 205 | 2.0 | 6.0 | 0.00 | 0.00 | 0.00 | 77 | 1023.2 |
| 20260502005320 | 55 | 240 | 2.0 | 6.0 | 0.00 | 0.00 | 0.00 | 77 | 1023.3 |
| 20260502004756 | 55 | 220 | 2.0 | 6.0 | 0.00 | 0.00 | 0.00 | 76 | 1023.4 |
| 20260502004227 | 55 | 258 | 2.0 | 9.0 | 0.00 | 0.00 | 0.00 | 75 | 1023.4 |
| 20260502004028 | 56 | 240 | 2.0 | 9.0 | 0.00 | 0.00 | 0.00 | 75 | 1023.4 |
| 20260502003824 | 56 | 222 | 2.0 | 9.0 | 0.00 | 0.00 | 0.00 | 75 | 1023.4 |
| 20260502003622 | 56 | 226 | 3.0 | 9.0 | 0.00 | 0.00 | 0.00 | 75 | 1023.4 |
| 20260502003414 | 56 | 236 | 3.0 | 9.0 | 0.00 | 0.00 | 0.00 | 74 | 1023.4 |
| 20260502003207 | 56 | 257 | 3.0 | 9.0 | 0.00 | 0.00 | 0.00 | 74 | 1023.4 |
| 20260502002639 | 56 | 232 | 3.0 | 7.0 | 0.00 | 0.00 | 0.00 | 74 | 1023.4 |
| 20260502002436 | 56 | 229 | 3.0 | 8.0 | 0.00 | 0.00 | 0.00 | 74 | 1023.6 |
| 20260502002237 | 56 | 230 | 3.0 | 8.0 | 0.00 | 0.00 | 0.00 | 74 | 1023.4 |
| 20260502002031 | 56 | 214 | 3.0 | 8.0 | 0.00 | 0.00 | 0.00 | 74 | 1023.4 |
| 20260502001458 | 56 | 217 | 3.0 | 8.0 | 0.00 | 0.00 | 0.00 | 73 | 1023.4 |
| 20260502001254 | 56 | 262 | 3.0 | 8.0 | 0.00 | 0.00 | 0.00 | 72 | 1023.4 |
| 20260502001054 | 56 | 250 | 3.0 | 8.0 | 0.00 | 0.00 | 0.00 | 72 | 1023.5 |
| 20260502000853 | 56 | 226 | 3.0 | 8.0 | 0.00 | 0.00 | 0.00 | 72 | 1023.6 |
| 20260502000644 | 56 | 274 | 3.0 | 8.0 | 0.00 | 0.00 | 0.00 | 71 | 1023.5 |
| 20260502000441 | 56 | 226 | 3.0 | 7.0 | 0.00 | 0.00 | 0.00 | 71 | 1023.6 |
| 20260502000235 | 56 | 250 | 3.0 | 7.0 | 0.00 | 0.00 | 0.00 | 71 | 1023.7 |
| 20260502000026 | 56 | 224 | 3.0 | 7.0 | 0.00 | 0.00 | 0.00 | 71 | 1023.7 |
| 20260501235458 | 56 | 250 | 3.0 | 7.0 | 0.00 | 0.00 | 0.00 | 70 | 1023.7 |
| 20260501234940 | 56 | 229 | 3.0 | 7.0 | 0.00 | 0.00 | 0.00 | 70 | 1023.7 |
| 20260501234421 | 57 | 214 | 3.0 | 7.0 | 0.00 | 0.00 | 0.00 | 70 | 1023.6 |
| 20260501234217 | 57 | 238 | 3.0 | 6.0 | 0.00 | 0.00 | 0.00 | 69 | 1023.7 |
| 20260501234011 | 57 | 233 | 3.0 | 6.0 | 0.00 | 0.00 | 0.00 | 69 | 1023.7 |
| 20260501233807 | 57 | 224 | 3.0 | 8.0 | 0.00 | 0.00 | 0.00 | 69 | 1023.7 |
| 20260501233601 | 57 | 227 | 3.0 | 8.0 | 0.00 | 0.00 | 0.00 | 69 | 1023.7 |
| 20260501233353 | 57 | 228 | 3.0 | 8.0 | 0.00 | 0.00 | 0.00 | 69 | 1023.6 |
| 20260501233142 | 57 | 219 | 4.0 | 8.0 | 0.00 | 0.00 | 0.00 | 68 | 1023.7 |
| 20260501232941 | 57 | 212 | 4.0 | 8.0 | 0.00 | 0.00 | 0.00 | 68 | 1023.7 |
| 20260501232731 | 57 | 205 | 4.0 | 9.0 | 0.00 | 0.00 | 0.00 | 68 | 1023.7 |
| 20260501232532 | 57 | 213 | 4.0 | 9.0 | 0.00 | 0.00 | 0.00 | 68 | 1023.7 |
| 20260501232328 | 57 | 225 | 4.0 | 9.0 | 0.00 | 0.00 | 0.00 | 68 | 1023.6 |
| 20260501232122 | 57 | 212 | 4.0 | 9.0 | 0.00 | 0.00 | 0.00 | 68 | 1023.7 |
| 20260501231921 | 57 | 212 | 4.0 | 9.0 | 0.00 | 0.00 | 0.00 | 68 | 1023.7 |
| 20260501231717 | 57 | 210 | 4.0 | 9.0 | 0.00 | 0.00 | 0.00 | 68 | 1023.7 |
| 20260501231516 | 58 | 215 | 3.0 | 9.0 | 0.00 | 0.00 | 0.00 | 68 | 1023.7 |
| 20260501231317 | 58 | 236 | 3.0 | 9.0 | 0.00 | 0.00 | 0.00 | 67 | 1023.7 |
| 20260501230758 | 58 | 210 | 3.0 | 7.0 | 0.00 | 0.00 | 0.00 | 68 | 1023.6 |
| 20260501230558 | 58 | 244 | 3.0 | 7.0 | 0.00 | 0.00 | 0.00 | 68 | 1023.5 |
| 20260501230353 | 58 | 215 | 3.0 | 7.0 | 0.00 | 0.00 | 0.00 | 68 | 1023.7 |
| 20260501230153 | 58 | 244 | 3.0 | 6.0 | 0.00 | 0.00 | 0.00 | 68 | 1023.7 |
| 20260501225953 | 58 | 229 | 3.0 | 7.0 | 0.00 | 0.00 | 0.00 | 67 | 1023.6 |
| 20260501225751 | 58 | 217 | 3.0 | 7.0 | 0.00 | 0.00 | 0.00 | 67 | 1023.6 |
| 20260501225547 | 58 | 226 | 3.0 | 7.0 | 0.00 | 0.00 | 0.00 | 67 | 1023.6 |
| 20260501225342 | 58 | 218 | 3.0 | 7.0 | 0.00 | 0.00 | 0.00 | 67 | 1023.6 |
| 20260501225134 | 58 | 199 | 3.0 | 7.0 | 0.00 | 0.00 | 0.00 | 67 | 1023.6 |
| 20260501224924 | 58 | 235 | 3.0 | 7.0 | 0.00 | 0.00 | 0.00 | 67 | 1023.5 |
| 20260501224724 | 58 | 240 | 3.0 | 7.0 | 0.00 | 0.00 | 0.00 | 67 | 1023.6 |
| 20260501224520 | 58 | 217 | 3.0 | 7.0 | 0.00 | 0.00 | 0.00 | 65 | 1023.6 |
| 20260501223316 | 58 | 218 | 2.0 | 7.0 | 0.00 | 0.00 | 0.00 | 64 | 1023.5 |
| 20260501223108 | 59 | 229 | 3.0 | 7.0 | 0.00 | 0.00 | 0.00 | 65 | 1023.5 |
| 20260501222542 | 59 | 225 | 2.0 | 6.0 | 0.00 | 0.00 | 0.00 | 65 | 1023.6 |
| 20260501222016 | 59 | 208 | 2.0 | 5.0 | 0.00 | 0.00 | 0.00 | 65 | 1023.6 |
| 20260501221815 | 59 | 243 | 2.0 | 5.0 | 0.00 | 0.00 | 0.00 | 66 | 1023.6 |
| 20260501221606 | 58 | 207 | 2.0 | 5.0 | 0.00 | 0.00 | 0.00 | 65 | 1023.6 |
| 20260501221404 | 58 | 167 | 2.0 | 5.0 | 0.00 | 0.00 | 0.00 | 66 | 1023.6 |
| 20260501221155 | 58 | 271 | 2.0 | 5.0 | 0.00 | 0.00 | 0.00 | 66 | 1023.5 |
| 20260501220952 | 58 | 270 | 2.0 | 5.0 | 0.00 | 0.00 | 0.00 | 66 | 1023.5 |
| 20260501220742 | 58 | 207 | 1.0 | 5.0 | 0.00 | 0.00 | 0.00 | 67 | 1023.4 |
| 20260501220533 | 58 | 212 | 1.0 | 5.0 | 0.00 | 0.00 | 0.00 | 67 | 1023.4 |
| 20260501220333 | 58 | 213 | 1.0 | 4.0 | 0.00 | 0.00 | 0.00 | 67 | 1023.5 |
| 20260501215926 | 58 | 192 | 1.0 | 4.0 | 0.00 | 0.00 | 0.00 | 67 | 1023.5 |
| 20260501215724 | 58 | 221 | 1.0 | 4.0 | 0.00 | 0.00 | 0.00 | 67 | 1023.4 |
| 20260501215516 | 58 | 229 | 1.0 | 3.0 | 0.00 | 0.00 | 0.00 | 67 | 1023.4 |
| 20260501215316 | 58 | 214 | 1.0 | 3.0 | 0.00 | 0.00 | 0.00 | 67 | 1023.5 |
| 20260501215113 | 58 | 216 | 0.0 | 3.0 | 0.00 | 0.00 | 0.00 | 67 | 1023.4 |
| 20260501214914 | 58 | 210 | 0.0 | 2.0 | 0.00 | 0.00 | 0.00 | 67 | 1023.4 |
| 20260501214709 | 58 | 207 | 0.0 | 2.0 | 0.00 | 0.00 | 0.00 | 67 | 1023.3 |
| 20260501214146 | 58 | 227 | 0.0 | 2.0 | 0.00 | 0.00 | 0.00 | 67 | 1023.4 |
| 20260501213937 | 58 | 224 | 0.0 | 2.0 | 0.00 | 0.00 | 0.00 | 67 | 1023.3 |
| 20260501213728 | 58 | 207 | 0.0 | 1.0 | 0.00 | 0.00 | 0.00 | 67 | 1023.3 |
| 20260501213520 | 58 | 207 | 0.0 | 1.0 | 0.00 | 0.00 | 0.00 | 67 | 1023.3 |
| 20260501213310 | 58 | 206 | 0.0 | 1.0 | 0.00 | 0.00 | 0.00 | 67 | 1023.4 |
| 20260501213104 | 58 | 220 | 0.0 | 1.0 | 0.00 | 0.00 | 0.00 | 67 | 1023.4 |
| 20260501212903 | 58 | 224 | 0.0 | 1.0 | 0.00 | 0.00 | 0.00 | 67 | 1023.3 |
| 20260501212653 | 58 | 228 | 0.0 | 1.0 | 0.00 | 0.00 | 0.00 | 68 | 1023.3 |
| 20260501212450 | 58 | 214 | 0.0 | 1.0 | 0.00 | 0.00 | 0.00 | 68 | 1023.3 |
| 20260501212241 | 58 | 211 | 0.0 | 1.0 | 0.00 | 0.00 | 0.00 | 68 | 1023.2 |
| 20260501211713 | 58 | 101 | 0.0 | 0.0 | 0.00 | 0.00 | 0.00 | 68 | 1023.3 |
| 20260501211503 | 58 | 89 | 0.0 | 0.0 | 0.00 | 0.00 | 0.00 | 67 | 1023.3 |
| 20260501211255 | 58 | 89 | 0.0 | 0.0 | 0.00 | 0.00 | 0.00 | 67 | 1023.3 |
| 20260501211052 | 58 | 89 | 0.0 | 0.0 | 0.00 | 0.00 | 0.00 | 67 | 1023.3 |
| 20260501210848 | 58 | 89 | 0.0 | 0.0 | 0.00 | 0.00 | 0.00 | 67 | 1023.3 |